Santa Monica, CA

10:39 AM PST on December 10, 2016 (GMT -0800)
Santa Monica Municipal

Weather History for KSMO - February, 2013

Change the Weather History Date:

Saturday, February 2, 2013

  Actual Average Record
Temperature  
Mean Temperature 62 °F -  
Max Temperature 70 °F 67 °F 87 °F (1954)
Min Temperature 55 °F 47 °F 35 °F (1950)
Degree Days  
Heating Degree Days 2    
Growing Degree Days 12 (Base 50)    
Moisture  
Dew Point 46 °F    
Average Humidity 54    
Maximum Humidity 80    
Minimum Humidity 36    
Precipitation  
Precipitation 0.00 in - - ()
Sea Level Pressure  
Sea Level Pressure 30.15 in    
Wind  
Wind Speed 3 mph (WNW)    
Max Wind Speed 12 mph    
Max Gust Speed 22 mph    
Visibility 10 miles    
Events Rain    
Averages and records for this station are not official NWS values.
T = Trace of Precipitation, MM = Missing Value Source: NWS Daily Summary

Daily Weather History Graph

Daily Weather History Graph

Search for Another Location

Airport or City:

Trip Planner

Search our weather history database for the weather conditions in past years. The results will help you decide how hot, cold, wet, or windy it might be!

Date:

Astronomy

Feb. 02, 2013 Rise Set
Actual Time 6:49 AM PST 5:25 PM PST
Civil Twilight 6:23 AM PST 5:51 PM PST
Nautical Twilight 5:53 AM PST 6:21 PM PST
Astronomical Twilight 5:24 AM PST 6:51 PM PST
Moon No Moon Rise 10:24 AM PST (2/2)
Length of Visible Light 11h 28m
Length of Day
10h 35m
Waning Gibbous, 58% of the Moon is Illuminated
Feb 2
Waning Gibbous
Feb 3
Last Quarter
Feb 9
New
Feb 17
First Quarter
Feb 25
Full

Hourly Weather History & Observations

Time (PST) Temp. Dew Point Humidity Pressure Visibility Wind Dir Wind Speed Gust Speed Precip Events Conditions
12:51 AM 57.9 °F 46.0 °F 65% 30.17 in 10.0 mi Calm Calm - N/A   Clear
1:51 AM 57.9 °F 45.0 °F 62% 30.16 in 10.0 mi SSW 3.5 mph - N/A   Clear
2:51 AM 57.9 °F 45.0 °F 62% 30.15 in 10.0 mi Calm Calm - N/A   Clear
3:51 AM 57.9 °F 46.0 °F 65% 30.16 in 10.0 mi SSW 5.8 mph - N/A   Clear
4:51 AM 55.9 °F 50.0 °F 80% 30.15 in 10.0 mi Calm Calm - N/A   Clear
5:51 AM 55.9 °F 46.9 °F 72% 30.17 in 10.0 mi NE 4.6 mph - N/A   Clear
6:51 AM 57.0 °F 46.0 °F 67% 30.17 in 10.0 mi East 3.5 mph - N/A   Clear
7:51 AM 57.0 °F 46.0 °F 67% 30.18 in 10.0 mi ENE 3.5 mph - N/A   Clear
8:51 AM 61.0 °F 48.0 °F 62% 30.19 in 10.0 mi Calm Calm - N/A   Clear
9:51 AM 64.0 °F 51.1 °F 63% 30.19 in 10.0 mi Calm Calm - N/A   Clear
10:51 AM 70.0 °F 50.0 °F 49% 30.19 in 10.0 mi Calm Calm - N/A   Clear
11:51 AM 64.9 °F 45.0 °F 48% 30.18 in 10.0 mi WSW 10.4 mph - N/A   Clear
12:51 PM 68.0 °F 46.0 °F 45% 30.14 in 10.0 mi Calm Calm - N/A   Clear
1:51 PM 66.9 °F 39.9 °F 37% 30.12 in 10.0 mi WSW 4.6 mph - N/A   Mostly Cloudy
2:51 PM 66.0 °F 46.0 °F 48% 30.11 in 10.0 mi SW 4.6 mph - N/A   Overcast
3:51 PM 64.9 °F 48.9 °F 56% 30.13 in 10.0 mi SSW 6.9 mph - N/A   Overcast
5:51 PM 64.0 °F 53.1 °F 67% 30.13 in 10.0 mi Calm Calm - N/A   Overcast
6:51 PM 68.0 °F 44.1 °F 42% 30.14 in 10.0 mi WNW 6.9 mph - N/A   Overcast
7:51 PM 70.0 °F 42.1 °F 36% 30.15 in 10.0 mi NNW 9.2 mph - 0.00 in Rain Light Rain
8:07 PM 68.0 °F 42.8 °F 40% 30.14 in 10.0 mi North 11.5 mph 21.9 mph 0.00 in Rain Light Rain
8:51 PM 68.0 °F 43.0 °F 40% 30.15 in 10.0 mi North 10.4 mph 20.7 mph 0.00 in   Overcast
9:51 PM 68.0 °F 42.1 °F 39% 30.14 in 10.0 mi Variable 6.9 mph 17.3 mph N/A   Overcast
10:51 PM 68.0 °F 43.0 °F 40% 30.14 in 10.0 mi North 10.4 mph 18.4 mph N/A   Mostly Cloudy
11:51 PM 68.0 °F 42.1 °F 39% 30.14 in 10.0 mi Calm Calm - N/A   Overcast